This demonstration page uses our WeatherBlox Daily Observations layout. Learn more.

Left ArrowRight Arrow

53.62937, 11.41316

Hourly Observations for July 6, 2016

Temp ( °F °C ) Dew Point ( °F °C ) Humidity (%) Winds ( mph kmh ) Pressure ( in mb ) Visibility ( mi km ) Precip ( " mm )
6:20 am 06:20 Cloudy with Light Rain 54 12 52 11 94 94 W 16 26 29.85 1011 30 48 N/A
6:50 am 06:50 Cloudy with Light Rain 54 12 52 11 94 94 W 17 28 29.85 1011 30 48 N/A
7:20 am 07:20 Cloudy with Light Rain 52 11 50 10 94 94 W 16 26 29.85 1011 30 48 N/A
7:50 am 07:50 Mostly Cloudy 54 12 50 10 88 88 W 16 26 29.85 1011 30 48 N/A
8:20 am 08:20 Mostly Cloudy 55 13 50 10 82 82 WSW 16 26 29.85 1011 30 48 N/A
8:50 am 08:50 Mostly Cloudy 55 13 50 10 82 82 W 20 31 29.85 1011 30 48 N/A
8:55 am 08:55 Mostly Cloudy 57 14 50 10 77 77 W 20 31 29.85 1011 30 48 N/A
9:20 am 09:20 Cloudy 55 13 50 10 82 82 WSW 18 30 29.85 1011 30 48 N/A
9:50 am 09:50 Mostly Cloudy 55 13 52 11 88 88 W 18 30 29.85 1011 30 48 N/A
10:20 am 10:20 Mostly Cloudy 59 15 50 10 72 72 W 21 33 29.85 1011 30 48 N/A
10:50 am 10:50 Mostly Cloudy 59 15 52 11 77 77 W 20 31 29.85 1011 30 48 N/A
11:20 am 11:20 Partly Cloudy 59 15 54 12 82 82 W 17 28 29.88 1012 30 48 N/A
11:50 am 11:50 Partly Cloudy 61 16 52 11 72 72 W 23 37 29.88 1012 30 48 N/A
11:55 am 11:55 Partly Cloudy 63 17 54 12 73 73 W 21 33 29.88 1012 30 48 N/A
12:20 pm 12:20 Mostly Cloudy 59 15 52 11 77 77 W 24 39 29.88 1012 30 48 N/A
12:50 pm 12:50 Mostly Cloudy with Light Showers 59 15 52 11 77 77 W 15 24 29.91 1013 30 48 N/A
1:20 pm 13:20 Mostly Cloudy 63 17 52 11 68 68 W 20 31 29.91 1013 30 48 N/A
1:50 pm 13:50 Mostly Cloudy 63 17 48 9 59 59 W 20 31 29.91 1013 30 48 N/A
2:20 pm 14:20 Mostly Cloudy 64 18 48 9 56 56 W 24 39 29.91 1013 30 48 N/A
2:50 pm 14:50 Mostly Cloudy 64 18 48 9 56 56 WNW 18 30 29.94 1014 30 48 N/A
3:20 pm 15:20 Partly Cloudy 64 18 48 9 56 56 W 24 39 29.94 1014 30 48 N/A
3:50 pm 15:50 Partly Cloudy 64 18 48 9 56 56 W 22 35 29.94 1014 30 48 N/A
4:20 pm 16:20 Partly Cloudy 64 18 46 8 52 52 W 24 39 29.97 1015 30 48 N/A
4:50 pm 16:50 Mostly Cloudy 64 18 48 9 56 56 W 21 33 29.97 1015 30 48 N/A
5:20 pm 17:20 Partly Cloudy 63 17 48 9 59 59 W 20 31 29.97 1015 30 48 N/A
5:50 pm 17:50 Mostly Cloudy 63 17 46 8 56 56 W 16 26 29.97 1015 30 48 N/A
6:20 pm 18:20 Mostly Cloudy 63 17 48 9 59 59 WNW 16 26 29.97 1015 30 48 N/A
6:50 pm 18:50 Mostly Cloudy 63 17 46 8 56 56 W 21 33 29.97 1015 30 48 N/A

Powered by AerisWeather